This is the latest recevied weather packets stored in our database for station/object N8XHB. If no packets are shown the sender has not sent any weather packets the latest 10 day(s).
| Time | Temp. | Humidity | Pressure | Rain* | Wind** | Luminosity | Snow |
|---|---|---|---|---|---|---|---|
| 1777912677 | 23.33° C | 26% | 1001.6 hPa | 0 mm | - | 889 W/m² | - |
| 1777912373 | 23.33° C | 25% | 1001.7 hPa | 0 mm | - | 883 W/m² | - |
| 1777912069 | 23.33° C | 24% | 1001.8 hPa | 0 mm | - | 881 W/m² | - |
| 1777911766 | 23.33° C | 29% | 1002.1 hPa | 0 mm | - | 868 W/m² | - |
| 1777911462 | 23.33° C | 29% | 1002 hPa | 0 mm | - | 864 W/m² | - |
| 1777911159 | 23.33° C | 27% | 1001.8 hPa | 0 mm | - | 860 W/m² | - |
| 1777910857 | 22.78° C | 29% | 1002 hPa | 0 mm | - | 856 W/m² | - |
| 1777910553 | 22.78° C | 30% | 1001.7 hPa | 0 mm | - | 849 W/m² | - |
| 1777910251 | 22.78° C | 30% | 1001.7 hPa | 0 mm | - | 838 W/m² | - |
| 1777909947 | 22.78° C | 35% | 1002.1 hPa | 0 mm | - | 827 W/m² | - |
| 1777909644 | 22.22° C | 36% | 1002.3 hPa | 0 mm | - | 817 W/m² | - |
| 1777909342 | 22.78° C | 37% | 1002.1 hPa | 0 mm | - | 807 W/m² | - |
| 1777909039 | 22.22° C | 36% | 1002.3 hPa | 0 mm | - | 795 W/m² | - |
| 1777908737 | 21.67° C | 40% | 1002.4 hPa | 0 mm | - | 784 W/m² | - |
| 1777908434 | 21.67° C | 43% | 1002.6 hPa | 0 mm | - | 774 W/m² | - |
| 1777908130 | 21.11° C | 43% | 1002.4 hPa | 0 mm | - | 763 W/m² | - |
| 1777907826 | 21.11° C | 43% | 1002.6 hPa | 0 mm | - | 750 W/m² | - |
| 1777907522 | 21.11° C | 44% | 1002.6 hPa | 0 mm | - | 737 W/m² | - |
| 1777907219 | 20.56° C | 42% | 1002.8 hPa | 0 mm | - | 723 W/m² | - |
| 1777906915 | 20.56° C | 44% | 1002.7 hPa | 0 mm | - | 709 W/m² | - |
| 1777906613 | 20° C | 44% | 1002.7 hPa | 0 mm | - | 694 W/m² | - |
| 1777906308 | 20° C | 45% | 1002.8 hPa | 0 mm | - | 680 W/m² | - |
| 1777906006 | 19.44° C | 46% | 1002.8 hPa | 0 mm | - | 665 W/m² | - |
| 1777905702 | 20° C | 47% | 1003.2 hPa | 0 mm | - | 650 W/m² | - |
| 1777905398 | 19.44° C | 47% | 1002.9 hPa | 0 mm | - | 634 W/m² | - |
* Rain latest hour (hover to see other rain measurements)
** Current wind speed in m/s (hover to see current wind gust speed)